• In Czech Republic
  • List of Countries
  • For 7 days
  • Water Temperature
  • Satellite Maps
  • Weather Map
  • Weather Widgets
  • user-avatar
    Login

    Hourly Weather Rokszyce

    Today, 21 September, Friday

    Time Temperature Precipitation Wind Pressure Humidity
    00:00 +18°C° 0 mm 1 mps 742 mmHg 75%
    01:00 +16°C° 0 mm 1 mps 742 mmHg 77%
    02:00 +16°C° 0 mm 1 mps 742 mmHg 78%
    03:00 +16°C° 0 mm 1 mps 742 mmHg 79%
    04:00 +16°C° 0 mm 1 mps 741 mmHg 80%
    05:00 +15°C° 0 mm 1 mps 741 mmHg 81%
    06:00 +16°C° 0 mm 1 mps 741 mmHg 79%
    07:00 +18°C° 0 mm 1 mps 741 mmHg 77%
    08:00 +19°C° 0 mm 1 mps 741 mmHg 75%
    09:00 +20°C° 0 mm 2 mps 741 mmHg 68%
    10:00 +23°C° 0 mm 2 mps 741 mmHg 60%
    11:00 +25°C° 0 mm 2 mps 741 mmHg 53%
    12:00 +26°C° 0 mm 3 mps 741 mmHg 50%
    13:00 +27°C° 0 mm 3 mps 740 mmHg 47%
    14:00 +27°C° 0 mm 3 mps 740 mmHg 44%
    15:00 +27°C° 0 mm 3 mps 739 mmHg 48%
    16:00 +26°C° 0 mm 3 mps 739 mmHg 52%
    17:00 +25°C° 0 mm 3 mps 739 mmHg 56%
    18:00 +24°C° 0 mm 3 mps 739 mmHg 61%
    19:00 +21°C° 0 mm 3 mps 739 mmHg 65%
    20:00 +19°C° 0 mm 3 mps 738 mmHg 69%
    21:00 +19°C° 0 mm 3 mps 738 mmHg 69%
    22:00 +18°C° 0 mm 3 mps 738 mmHg 68%
    23:00 +18°C° 0 mm 3 mps 738 mmHg 68%

    Tomorrow, 22 September, Saturday

    Time Temperature Precipitation Wind Pressure Humidity
    00:00 +18°C° 0 mm 3 mps 738 mmHg 66%
    01:00 +18°C° 0 mm 4 mps 738 mmHg 64%
    02:00 +18°C° 0 mm 4 mps 738 mmHg 62%
    03:00 +19°C° 0 mm 4 mps 738 mmHg 59%
    04:00 +19°C° 0 mm 4 mps 738 mmHg 56%
    05:00 +19°C° 0 mm 4 mps 738 mmHg 53%
    06:00 +17°C° 0.2 mm 5 mps 739 mmHg 62%
    07:00 +16°C° 0.2 mm 5 mps 739 mmHg 72%
    08:00 +15°C° 0.2 mm 5 mps 740 mmHg 81%
    09:00 +14°C° 0.7 mm 4 mps 741 mmHg 84%
    10:00 +13°C° 0.7 mm 3 mps 741 mmHg 86%
    11:00 +12°C° 0.7 mm 3 mps 742 mmHg 89%
    12:00 +13°C° 1.1 mm 2 mps 742 mmHg 89%
    13:00 +13°C° 1.1 mm 2 mps 742 mmHg 89%
    14:00 +12°C° 1.1 mm 2 mps 742 mmHg 89%
    15:00 +12°C° 0.5 mm 2 mps 742 mmHg 89%
    16:00 +12°C° 0.5 mm 2 mps 742 mmHg 89%
    17:00 +12°C° 0.5 mm 1 mps 742 mmHg 88%
    18:00 +10°C° 0 mm 2 mps 742 mmHg 89%
    19:00 +10°C° 0 mm 2 mps 742 mmHg 89%
    20:00 +9°C° 0 mm 2 mps 742 mmHg 90%
    21:00 +9°C° 0 mm 2 mps 742 mmHg 89%
    22:00 +9°C° 0 mm 3 mps 742 mmHg 88%
    23:00 +9°C° 0 mm 3 mps 743 mmHg 87%

    Day after tomorrow, 23 September, Sunday

    Time Temperature Precipitation Wind Pressure Humidity
    00:00 +8°C° 0 mm 3 mps 743 mmHg 87%
    01:00 +8°C° 0 mm 3 mps 743 mmHg 87%
    02:00 +8°C° 0 mm 3 mps 743 mmHg 87%
    03:00 +8°C° 0 mm 3 mps 743 mmHg 87%
    04:00 +8°C° 0 mm 3 mps 743 mmHg 88%
    05:00 +8°C° 0 mm 3 mps 743 mmHg 88%
    06:00 +8°C° 0 mm 3 mps 743 mmHg 86%
    07:00 +9°C° 0 mm 3 mps 744 mmHg 84%
    08:00 +10°C° 0 mm 3 mps 744 mmHg 81%
    09:00 +12°C° 0 mm 4 mps 744 mmHg 73%
    10:00 +13°C° 0 mm 4 mps 744 mmHg 64%
    11:00 +15°C° 0 mm 5 mps 744 mmHg 56%
    12:00 +16°C° 0 mm 5 mps 744 mmHg 54%
    13:00 +16°C° 0 mm 5 mps 743 mmHg 53%
    14:00 +17°C° 0 mm 5 mps 743 mmHg 52%
    15:00 +17°C° 0 mm 4 mps 743 mmHg 56%
    16:00 +17°C° 0 mm 4 mps 742 mmHg 60%
    17:00 +16°C° 0 mm 3 mps 742 mmHg 64%
    18:00 +14°C° 0 mm 3 mps 742 mmHg 68%
    19:00 +13°C° 0 mm 3 mps 742 mmHg 72%
    20:00 +12°C° 0 mm 3 mps 742 mmHg 75%
    21:00 +12°C° 0 mm 4 mps 741 mmHg 73%
    22:00 +12°C° 0 mm 4 mps 740 mmHg 71%
    23:00 +12°C° 0 mm 5 mps 740 mmHg 69%

    24 September, Monday

    Time Temperature Precipitation Wind Pressure Humidity
    00:00 +12°C° 0 mm 5 mps 739 mmHg 68%
    01:00 +13°C° 0 mm 6 mps 738 mmHg 67%
    02:00 +12°C° 0 mm 7 mps 737 mmHg 66%
    03:00 +13°C° 0 mm 8 mps 736 mmHg 62%
    04:00 +13°C° 0 mm 9 mps 734 mmHg 58%
    05:00 +15°C° 0 mm 9 mps 733 mmHg 53%
    06:00 +14°C° 0.1 mm 10 mps 732 mmHg 56%
    07:00 +14°C° 0.1 mm 10 mps 731 mmHg 59%
    08:00 +16°C° 0.1 mm 10 mps 730 mmHg 62%
    09:00 +14°C° 0.1 mm 10 mps 730 mmHg 65%
    10:00 +14°C° 0.1 mm 10 mps 729 mmHg 67%
    11:00 +14°C° 0.1 mm 10 mps 729 mmHg 69%
    12:00 +14°C° 0.4 mm 10 mps 729 mmHg 71%
    13:00 +14°C° 0.4 mm 10 mps 728 mmHg 73%
    14:00 +14°C° 0.4 mm 10 mps 728 mmHg 75%
    15:00 +13°C° 0.1 mm 11 mps 729 mmHg 72%
    16:00 +12°C° 0.1 mm 12 mps 730 mmHg 68%
    17:00 +10°C° 0.1 mm 12 mps 732 mmHg 65%
    18:00 +9°C° 0.1 mm 12 mps 733 mmHg 66%
    19:00 +9°C° 0.1 mm 11 mps 734 mmHg 68%
    20:00 +8°C° 0.1 mm 10 mps 735 mmHg 69%
    21:00 +8°C° 0.2 mm 9 mps 736 mmHg 72%
    22:00 +7°C° 0.2 mm 9 mps 737 mmHg 75%
    23:00 +7°C° 0.2 mm 9 mps 738 mmHg 78%

    25 September, Tuesday

    Time Temperature Precipitation Wind Pressure Humidity
    00:00 +6°C° 0.3 mm 9 mps 739 mmHg 77%
    01:00 +6°C° 0.3 mm 9 mps 740 mmHg 77%
    02:00 +5°C° 0.3 mm 9 mps 741 mmHg 77%
    03:00 +5°C° 0.2 mm 8 mps 741 mmHg 77%
    04:00 +4°C° 0.2 mm 8 mps 742 mmHg 76%
    05:00 +4°C° 0.2 mm 7 mps 742 mmHg 76%
    06:00 +4°C° 0.2 mm 8 mps 743 mmHg 76%
    07:00 +4°C° 0.2 mm 8 mps 744 mmHg 76%
    08:00 +4°C° 0.2 mm 8 mps 744 mmHg 76%
    09:00 +5°C° 0.1 mm 8 mps 745 mmHg 72%
    10:00 +6°C° 0.1 mm 8 mps 745 mmHg 68%
    11:00 +7°C° 0.1 mm 8 mps 746 mmHg 64%
    12:00 +7°C° 0.3 mm 8 mps 746 mmHg 61%
    13:00 +9°C° 0.3 mm 8 mps 746 mmHg 59%
    14:00 +10°C° 0.3 mm 8 mps 747 mmHg 56%
    15:00 +10°C° 0.1 mm 7 mps 747 mmHg 55%
    16:00 +9°C° 0.1 mm 6 mps 747 mmHg 54%
    17:00 +9°C° 0.1 mm 5 mps 747 mmHg 53%
    18:00 +8°C° 0 mm 5 mps 747 mmHg 58%
    19:00 +7°C° 0 mm 4 mps 747 mmHg 63%
    20:00 +6°C° 0 mm 4 mps 746 mmHg 69%
    21:00 +6°C° 0 mm 4 mps 746 mmHg 68%
    22:00 +6°C° 0 mm 5 mps 746 mmHg 66%
    23:00 +6°C° 0 mm 5 mps 745 mmHg 65%

    26 September, Wednesday

    Time Temperature Precipitation Wind Pressure Humidity
    00:00 +5°C° 0.7 mm 6 mps 745 mmHg 71%
    01:00 +5°C° 0.7 mm 6 mps 744 mmHg 76%
    02:00 +5°C° 0.7 mm 7 mps 743 mmHg 82%
    03:00 +5°C° 1.1 mm 6 mps 743 mmHg 84%
    04:00 +5°C° 1.1 mm 6 mps 743 mmHg 87%
    05:00 +6°C° 1.1 mm 5 mps 743 mmHg 90%
    06:00 +6°C° 0.3 mm 5 mps 743 mmHg 90%
    07:00 +5°C° 0.3 mm 5 mps 744 mmHg 89%
    08:00 +5°C° 0.3 mm 5 mps 744 mmHg 89%
    09:00 +6°C° 0.6 mm 5 mps 745 mmHg 89%
    10:00 +6°C° 0.6 mm 5 mps 745 mmHg 89%
    11:00 +7°C° 0.6 mm 5 mps 746 mmHg 89%
    12:00 +8°C° 0.1 mm 5 mps 746 mmHg 83%
    13:00 +9°C° 0.1 mm 5 mps 747 mmHg 76%
    14:00 +10°C° 0.1 mm 5 mps 747 mmHg 70%
    15:00 +11°C° 0.1 mm 4 mps 747 mmHg 70%
    16:00 +11°C° 0.1 mm 4 mps 748 mmHg 71%
    17:00 +11°C° 0.1 mm 3 mps 748 mmHg 71%
    18:00 +10°C° 0 mm 3 mps 748 mmHg 76%
    19:00 +8°C° 0 mm 3 mps 749 mmHg 81%
    20:00 +7°C° 0 mm 2 mps 749 mmHg 86%
    21:00 +7°C° 0 mm 2 mps 749 mmHg 86%
    22:00 +6°C° 0 mm 2 mps 750 mmHg 86%
    23:00 +6°C° 0 mm 2 mps 750 mmHg 86%
    Show more